This demonstration page uses our WeatherBlox Daily Observations layout. Learn more.

Hourly Observations for October 2, 2017

Temp ( °F °C ) Dew Point ( °F °C ) Humidity (%) Winds ( mph kmh ) Pressure ( in mb ) Visibility ( mi km ) Precip ( " mm )
12:54 am 00:54 Clear 71 21.7 52 11.1 51 51 S 16 26 29.68 1005 10 16.09344 0 0
1:10 am 01:10 Mostly Cloudy with Nearby Thunderstorms 73 22.8 52 11.1 48 48 W 20 31 29.74 1007 10 16.09344 0 0
1:22 am 01:22 Cloudy with Nearby Thunderstorms 71 21.7 55 12.8 57 57 NW 14 22 29.74 1007 10 16.09344 0 0
1:30 am 01:30 Cloudy with Light Thunderstorms 69 20.6 58 14.4 68 68 W 15 24 29.8 1009 5 8.04672 0.001 0.001
1:37 am 01:37 Cloudy with Heavy Thunderstorms 66 18.9 59 15 78 78 SSW 5 7 29.77 1008 1.75 2.816352 0.17 4.318
1:54 am 01:54 Cloudy with Heavy Thunderstorms 64 17.8 59 15 84 84 SW 10 17 29.74 1007 1.5 2.414016 0.48 12.192
2:03 am 02:03 Cloudy with Heavy Thunderstorms 63 17.2 60 15.6 90 90 SSE 8 13 29.74 1007 2.5 4.02336 0.12 3.048
2:28 am 02:28 Cloudy with Heavy Thunderstorms 63 17.2 60 15.6 90 90 N 6 9 29.77 1008 1.5 2.414016 0.47 11.938
2:33 am 02:33 Cloudy with Light Thunderstorms 64 17.8 60 15.6 87 87 WSW 5 7 29.77 1008 3 4.828032 0.47 11.938
2:54 am 02:54 Cloudy with Light Rain 63 17.2 60 15.6 90 90 SW 3 6 29.77 1008 5 8.04672 0.51 12.954
3:54 am 03:54 Cloudy 64 17.8 60 15.6 87 87 SE 9 15 29.74 1007 10 16.09344 0.02 0.508
4:54 am 04:54 Mostly Cloudy 64 17.8 58 14.4 81 81 SSE 14 22 29.71 1006 10 16.09344 0 0
5:54 am 05:54 Mostly Cloudy 64 17.8 58 14.4 81 81 SSE 9 15 29.74 1007 10 16.09344 0 0
6:54 am 06:54 Cloudy 64 17.8 58 14.4 81 81 SSE 13 20 29.74 1007 10 16.09344 0 0
7:54 am 07:54 Cloudy 64 17.8 58 14.4 81 81 S 8 13 29.77 1008 10 16.09344 0 0
8:54 am 08:54 Cloudy 66 18.9 58 14.4 75 75 S 13 20 29.77 1008 10 16.09344 0 0
9:54 am 09:54 Cloudy 68 20 59 15 73 73 S 15 24 29.8 1009 10 16.09344 0 0
10:54 am 10:54 Cloudy 71 21.7 59 15 66 66 S 14 22 29.8 1009 10 16.09344 0 0
11:54 am 11:54 Cloudy 72 22.2 59 15 64 64 S 15 24 29.8 1009 10 16.09344 0 0
12:54 pm 12:54 Cloudy 76 24.4 60 15.6 58 58 S 21 33 29.77 1008 10 16.09344 0 0
1:54 pm 13:54 Cloudy 77 25 62 16.7 60 60 SSW 10 17 29.77 1008 10 16.09344 0 0
2:54 pm 14:54 Cloudy 80 26.7 64 17.8 58 58 S 15 24 29.74 1007 10 16.09344 0 0
3:54 pm 15:54 Cloudy 83 28.3 64 17.8 53 53 S 20 31 29.74 1007 10 16.09344 0 0
4:54 pm 16:54 Cloudy 82 27.8 65 18.3 56 56 S 15 24 29.74 1007 10 16.09344 0 0
5:54 pm 17:54 Cloudy 81 27.2 65 18.3 58 58 S 12 19 29.74 1007 10 16.09344 0 0
6:54 pm 18:54 Cloudy 82 27.8 63 17.2 53 53 S 17 28 29.74 1007 10 16.09344 0 0
7:54 pm 19:54 Mostly Cloudy 79 26.1 63 17.2 58 58 SSE 18 30 29.71 1006 10 16.09344 0 0
8:54 pm 20:54 Clear 79 26.1 62 16.7 56 56 S 20 31 29.71 1006 10 16.09344 0 0
9:54 pm 21:54 Clear 78 25.6 62 16.7 58 58 S 18 30 29.77 1008 10 16.09344 0 0
10:54 pm 22:54 Clear 77 25 62 16.7 60 60 S 25 41 29.77 1008 10 16.09344 0 0

Powered by AerisWeather